This is the latest recevied weather packets stored in our database for station/object N3FYI-5. If no packets are shown the sender has not sent any weather packets the latest 10 day(s).
| Time | Temp. | Humidity | Pressure | Rain* | Wind** | Luminosity | Snow |
|---|---|---|---|---|---|---|---|
| 1777339388 | 13.33° C | 54% | 1029.8 hPa | 0 mm | - | - | - |
| 1777338908 | 13.33° C | 53% | 1029.7 hPa | 0 mm | - | - | - |
| 1777338436 | 13.33° C | 53% | 1029.7 hPa | 0 mm | - | - | - |
| 1777337950 | 13.33° C | 52% | 1029.5 hPa | 0 mm | - | - | - |
| 1777337474 | 13.33° C | 51% | 1029.6 hPa | 0 mm | - | - | - |
| 1777336990 | 13.33° C | 50% | 1029.7 hPa | 0 mm | - | - | - |
| 1777336508 | 13.33° C | 50% | 1029.7 hPa | 0 mm | - | - | - |
| 1777336042 | 13.89° C | 49% | 1029.8 hPa | 0 mm | - | - | - |
| 1777335551 | 13.89° C | 48% | 1030 hPa | 0 mm | - | - | - |
| 1777335087 | 13.89° C | 47% | 1030 hPa | 0 mm | - | - | - |
| 1777334588 | 14.44° C | 46% | 1029.9 hPa | 0 mm | - | - | - |
| 1777334108 | 14.44° C | 45% | 1029.9 hPa | 0 mm | - | - | - |
| 1777333628 | 15° C | 43% | 1029.9 hPa | 0 mm | - | - | - |
| 1777333150 | 15° C | 41% | 1030 hPa | 0 mm | - | - | - |
| 1777332668 | 15.56° C | 40% | 1030 hPa | 0 mm | - | - | - |
| 1777332193 | 16.11° C | 39% | 1030 hPa | 0 mm | - | - | - |
| 1777331708 | 16.11° C | 38% | 1029.9 hPa | 0 mm | - | - | - |
| 1777331228 | 16.67° C | 37% | 1029.7 hPa | 0 mm | - | - | - |
| 1777330748 | 16.67° C | 35% | 1029.9 hPa | 0 mm | - | - | - |
| 1777330079 | 17.22° C | 37% | 1029.9 hPa | 0 mm | - | - | - |
| 1777329599 | 17.22° C | 37% | 1029.8 hPa | 0 mm | - | - | - |
| 1777329123 | 17.78° C | 37% | 1030 hPa | 0 mm | - | - | - |
| 1777328639 | 18.33° C | 35% | 1030 hPa | 0 mm | - | - | - |
| 1777328159 | 18.89° C | 34% | 1029.9 hPa | 0 mm | - | - | - |
| 1777327679 | 19.44° C | 34% | 1029.9 hPa | 0 mm | - | - | - |
* Rain latest hour (hover to see other rain measurements)
** Current wind speed in m/s (hover to see current wind gust speed)